Pagrindinis puslapis
METAR-TAF:

METAR-TAF

Oro uostai :

Comanche County-City Airport

Comanche, Teksasas, Jungtinės Amerikos Valstijos

platuma: 31-55N, ilguma: 098-36-01W, Aukštis: 423 m

Dabartinis oras

Ataskaita buvo paskelbta 17 minutes, ne 03:35 UTC
Vėjas 6 kt iš Pietryčių
Temperatūra 21°C
Drėgmė 94%
Slėgis 1013 hPa
Matomumas: 16.1 km
Giedras dangus

METAR: KMKN 170335Z AUTO 13006KT 10SM CLR 21/20 A2990 RMK AO2 T02090201

Laikas: 22:52 (03:52 UTC)


TAF: trūkstamas

Orai ataskaitas ir orų prognozės (METAR, TAF).

turimą stotys yra geltonos ir raudonos taškus žemėlapyje.

Perkelti pele per norėdami pamatyti stoties vardą.

Tada spustelėkite, norėdami matyti oro stebėjimo ir prognozės.

Norėdami pakeisti žemėlapį: spustelėkite ant žalios mygtukų su juodo kryžiaus žemyn,; žalią mygtuką su brūkšneliu, jei norite nutolinti; arba žalių rodyklių gretimoms žemėlapius.


METAR-TAF: